sat.trackr.live / text

‹ back to catalog

STARLINK-35730

NORAD 66273 · 2025-247J

PAYLOAD ACTIVE UNKNOWN

§ Identity

Operator
Country
US
Launch date
2025-10-31
Launch site
AFWTR
Launch vehicle
Mass (kg)
RCS (m²)

Purposes: comms

External: N2YO · Heavens-Above · Gunter

§ Orbital elements

Epoch: 2026-09-20T13:18:28.869120Z

Period
93.85 min
Inclination
53.1639°
Eccentricity
0.0001742
Mean motion
15.34407400 rev/d
Perigee alt
461.5 km
Apogee alt
463.9 km
Semi-major
6,840.8 km
B*
3.2004e-4
RAAN
1.6875°
Arg perigee
90.3904°
Mean anomaly
269.7299°
Rev number
5,098

§ Raw data

STARLINK-357301 66273U 25247J   26263.55450080  .00010454  00000+0  32004-3 0  99952 66273  53.1639   1.6875 0001742  90.3904 269.7299 15.34407400 50983

JSON: /api/v1/satellites/66273 · /tle

For live sub-satellite position, see the globe view (requires WebGL).

§ Visibility from observer

Set your observer location to see the next 7 days of passes ≥ 10°. The values pass through the URL so the page stays shareable.

No JS? Fill the form by hand. The geolocation button needs JavaScript.